Tracking 29088 objects as of 13-Jul-2024
HD Live streaming from Space Station
objects crossing your sky now

USA 118

Track USA 118 now!
USA 118 is classified as:


NORAD ID: 23855
Int'l Code: 1996-026A
Perigee: 34,325.4 km
Apogee: 37,263.1 km
Inclination: 8.3 °
Period: 1,436.1 minutes
Semi major axis: 42165 km
RCS: Unknown
Launch date: April 24, 1996
Source: United States (US)
Launch site: AIR FORCE EASTERN TEST RANGE (AFETR)

In the $1 billion range; ELINT; signals intelligence.
Your satellite tracking list
Your tracking list is empty




NASA's NSSDC Master Catalog

Two Line Element Set (TLE):
1 23855U 96026A   24064.37802250 0.00000000  00000-0  00000-0 0    02
2 23855   8.2942 352.9848 0348360 303.2123  53.1408  1.00270000    08
Source of the keplerian elements: McCants